Rochester, MN

6:43 PM CDT on May 22, 2017 (GMT -0500)
Rochester International

Weather History for KRST - November, 2013

Change the Weather History Date:

Saturday, November 2, 2013

  Actual Average Record
Temperature  
Mean Temperature 39 °F 41 °F  
Max Temperature 48 °F 50 °F 74 °F (1953)
Min Temperature 29 °F 33 °F 8 °F (1951)
Degree Days  
Heating Degree Days 26 24  
Month to date heating degree days 49 47  
Since 1 July heating degree days 732 783  
Cooling Degree Days 0 0  
Month to date cooling degree days 0 0  
Year to date cooling degree days 656 585  
Moisture  
Dew Point 28 °F    
Average Humidity 67    
Maximum Humidity 89    
Minimum Humidity 45    
Precipitation  
Precipitation 0.00 in 0.06 in 0.67 in (1992)
Month to date precipitation 0.00 0.13  
Year to date precipitation 38.90 30.01  
Snow  
Snow 0.00 in 0.10 in 2.90 in (1928)
Month to date snowfall 0.0 0.2  
Since 1 July snowfall T 1.0  
Snow Depth 0.00 in    
Sea Level Pressure  
Sea Level Pressure 30.04 in    
Wind  
Wind Speed 8 mph (WNW)    
Max Wind Speed 17 mph    
Max Gust Speed 23 mph    
Visibility 10 miles    
Events      
T = Trace of Precipitation, MM = Missing Value Source: NWS Daily Summary

Daily Weather History Graph

Daily Weather History Graph

Search for Another Location

Airport or City:

Trip Planner

Search our weather history database for the weather conditions in past years. The results will help you decide how hot, cold, wet, or windy it might be!

Date:

Astronomy

Nov. 02, 2013 Rise Set
Actual Time 7:47 AM CDT 5:58 PM CDT
Civil Twilight 7:17 AM CDT 6:28 PM CDT
Nautical Twilight 6:43 AM CDT 7:02 PM CDT
Astronomical Twilight 6:10 AM CDT 7:36 PM CDT
Moon 6:44 AM CDT (11/2) 5:30 PM CDT (11/2)
Length of Visible Light 11h 10m
Length of Day
10h 10m
Waning Crescent, 1% of the Moon is Illuminated
Nov 2
Waning Crescent
Nov 3
New
Nov 9
First Quarter
Nov 17
Full
Nov 25
Last Quarter

Hourly Weather History & Observations

Time (CDT) Temp. Windchill Dew Point Humidity Pressure Visibility Wind Dir Wind Speed Gust Speed Precip Events Conditions
12:54 AM 34.0 °F 26.6 °F 28.0 °F 79% 29.88 in 10.0 mi NNW 9.2 mph - N/A   Clear
1:54 AM 33.1 °F 25.5 °F 28.0 °F 82% 29.91 in 10.0 mi WNW 9.2 mph - N/A   Partly Cloudy
2:54 AM 34.0 °F 28.0 °F 30.0 °F 85% 29.91 in 10.0 mi NW 6.9 mph - N/A   Overcast
3:54 AM 36.0 °F 32.1 °F 30.9 °F 82% 29.92 in 10.0 mi West 4.6 mph - N/A   Overcast
4:33 AM 37.4 °F 32.1 °F 32.0 °F 81% 29.90 in 10.0 mi West 6.9 mph - N/A   Overcast
4:54 AM 37.9 °F 31.5 °F 33.1 °F 83% 29.94 in 10.0 mi WNW 9.2 mph - N/A   Overcast
5:54 AM 36.0 °F 27.1 °F 30.9 °F 82% 29.96 in 10.0 mi NW 13.8 mph - N/A   Partly Cloudy
6:54 AM 34.0 °F 26.0 °F 28.9 °F 82% 29.99 in 10.0 mi NW 10.4 mph - N/A   Partly Cloudy
7:09 AM 33.8 °F 26.4 °F 28.4 °F 81% 29.96 in 10.0 mi NW 9.2 mph - N/A   Mostly Cloudy
7:54 AM 35.1 °F 28.6 °F 28.9 °F 78% 30.01 in 10.0 mi NW 8.1 mph - N/A   Overcast
8:54 AM 35.1 °F 27.4 °F 30.0 °F 82% 30.04 in 10.0 mi NW 10.4 mph - N/A   Scattered Clouds
9:54 AM 37.0 °F 28.9 °F 30.0 °F 76% 30.04 in 10.0 mi NNW 12.7 mph - N/A   Clear
10:54 AM 39.9 °F 32.5 °F 30.0 °F 68% 30.06 in 10.0 mi NW 12.7 mph - N/A   Partly Cloudy
11:54 AM 42.1 °F 36.1 °F 28.0 °F 58% 30.09 in 10.0 mi NNW 10.4 mph - N/A   Clear
12:54 PM 45.0 °F 39.3 °F 30.0 °F 56% 30.09 in 10.0 mi NNW 11.5 mph - N/A   Partly Cloudy
1:54 PM 45.0 °F 39.3 °F 28.9 °F 53% 30.09 in 10.0 mi WNW 11.5 mph - N/A   Clear
2:54 PM 46.9 °F - 28.0 °F 48% 30.09 in 10.0 mi NNW 10.4 mph - N/A   Clear
3:54 PM 46.9 °F - 28.0 °F 48% 30.09 in 10.0 mi NW 10.4 mph - N/A   Clear
4:54 PM 46.9 °F - 27.0 °F 46% 30.10 in 10.0 mi NW 11.5 mph - N/A   Clear
5:54 PM 41.0 °F 36.4 °F 26.1 °F 55% 30.12 in 10.0 mi WNW 6.9 mph - N/A   Clear
6:54 PM 41.0 °F 39.0 °F 25.0 °F 53% 30.14 in 10.0 mi WNW 3.5 mph - N/A   Clear
7:54 PM 39.9 °F 37.8 °F 25.0 °F 55% 30.14 in 10.0 mi West 3.5 mph - N/A   Clear
8:54 PM 34.0 °F 31.0 °F 25.0 °F 70% 30.14 in 10.0 mi South 3.5 mph - N/A   Clear
9:54 PM 32.0 °F 26.4 °F 25.0 °F 75% 30.15 in 10.0 mi South 5.8 mph - N/A   Clear
10:54 PM 28.9 °F 22.8 °F 23.0 °F 78% 30.16 in 10.0 mi SSE 5.8 mph - N/A   Clear
11:54 PM 28.9 °F 22.8 °F 24.1 °F 82% 30.16 in 10.0 mi South 5.8 mph - N/A   Partly Cloudy